Weather History for Baraboo, WI

Change the Weather History Date:

Saturday, May 25, 2013

  Actual Average Record
Temperature  
Mean Temperature 54 °F -  
Max Temperature 61 °F 69 °F 87 °F (1965)
Min Temperature 47 °F 46 °F 27 °F (1979)
Degree Days  
Heating Degree Days 11    
Growing Degree Days 4 (Base 50)    
Moisture  
Dew Point 37 °F    
Average Humidity 54    
Maximum Humidity 73    
Minimum Humidity 36    
Precipitation  
Precipitation 0.00 in - - ()
Sea Level Pressure  
Sea Level Pressure 30.33 in    
Wind  
Wind Speed 5 mph (SE)    
Max Wind Speed 13 mph    
Max Gust Speed 18 mph    
Visibility 10 miles    
Events Rain    
Averages and records for this station are not official NWS values.
T = Trace of Precipitation, MM = Missing Value Source: NWS Daily Summary

Daily Weather History Graph

Daily Weather History Graph

Search for Another Location

Airport:

Trip Planner

Search our weather history database for the weather conditions in past years. The results will help you decide how hot, cold, wet, or windy it might be!

Date:

Astronomy

May. 25, 2013 Rise Set
Actual Time 5:25 AM CDT 8:27 PM CDT
Civil Twilight 4:50 AM CDT 9:01 PM CDT
Nautical Twilight 4:07 AM CDT 9:45 PM CDT
Astronomical Twilight 3:15 AM CDT 10:38 PM CDT
Moon 9:15 PM CDT (5/25) 5:52 AM CDT (5/25)
Length of Visible Light 16h 10m
Length of Day
15h 02m
Full, 100% of the Moon is Illuminated
May 25
Full
May 31
Last Quarter
Jun 8
New
Jun 16
First Quarter
Jun 23
Full

Hourly Weather History & Observations

Time (CDT) Temp. Dew Point Humidity Pressure Visibility Wind Dir Wind Speed Gust Speed Precip Events Conditions
12:15 AM 51.1 °F 40.6 °F 67% 30.30 in 10.0 mi SE 5.8 mph - N/A   Clear
12:35 AM 51.4 °F 41.0 °F 68% 30.30 in 10.0 mi Calm Calm - N/A   Clear
12:55 AM 51.8 °F 41.2 °F 67% 30.30 in 10.0 mi Calm Calm - N/A   Clear
1:15 AM 50.7 °F 42.1 °F 72% 30.31 in 10.0 mi Calm Calm - N/A   Clear
1:35 AM 50.4 °F 42.1 °F 73% 30.31 in 10.0 mi South 6.9 mph - N/A   Scattered Clouds
1:55 AM 50.5 °F 40.5 °F 68% 30.31 in 10.0 mi SSE 5.8 mph - N/A   Scattered Clouds
2:15 AM 50.4 °F 40.3 °F 68% 30.32 in 10.0 mi ESE 4.6 mph - N/A   Scattered Clouds
2:35 AM 50.0 °F 40.3 °F 69% 30.32 in 10.0 mi East 4.6 mph - N/A   Mostly Cloudy
2:55 AM 50.0 °F 40.1 °F 69% 30.32 in 10.0 mi SSE 6.9 mph - N/A   Overcast
3:15 AM 50.2 °F 39.4 °F 66% 30.31 in 10.0 mi SSE 5.8 mph - N/A   Overcast
3:35 AM 50.0 °F 39.2 °F 66% 30.31 in 10.0 mi SE 3.5 mph - N/A   Overcast
3:55 AM 49.3 °F 39.9 °F 70% 30.32 in 10.0 mi East 3.5 mph - N/A   Overcast
4:15 AM 49.1 °F 40.1 °F 71% 30.32 in 10.0 mi SE 3.5 mph - N/A   Overcast
4:35 AM 48.7 °F 39.9 °F 72% 30.32 in 10.0 mi ESE 4.6 mph - N/A   Overcast
4:55 AM 48.9 °F 38.5 °F 67% 30.33 in 10.0 mi SSE 6.9 mph - N/A   Overcast
5:15 AM 48.4 °F 37.6 °F 66% 30.34 in 10.0 mi SSE 8.1 mph - N/A   Overcast
5:35 AM 48.4 °F 38.1 °F 68% 30.35 in 10.0 mi South 5.8 mph - N/A Rain Light Rain
5:55 AM 48.2 °F 38.7 °F 70% 30.35 in 10.0 mi South 5.8 mph - N/A   Overcast
6:15 AM 48.2 °F 38.3 °F 69% 30.36 in 10.0 mi SSE 5.8 mph - N/A   Overcast
6:35 AM 48.6 °F 37.9 °F 67% 30.37 in 10.0 mi East 3.5 mph - N/A   Overcast
6:55 AM 48.6 °F 37.0 °F 64% 30.38 in 10.0 mi SSE 4.6 mph - N/A   Overcast
7:15 AM 49.1 °F 36.7 °F 62% 30.38 in 10.0 mi Calm Calm - N/A   Overcast
7:35 AM 49.1 °F 35.1 °F 58% 30.37 in 10.0 mi SE 4.6 mph - N/A   Overcast
7:55 AM 50.0 °F 35.4 °F 57% 30.37 in 10.0 mi ESE 3.5 mph - N/A   Overcast
8:15 AM 50.0 °F 34.3 °F 55% 30.38 in 10.0 mi SE 3.5 mph - N/A   Overcast
8:35 AM 50.0 °F 35.6 °F 58% 30.38 in 10.0 mi SSE 3.5 mph - N/A   Overcast
8:55 AM 50.4 °F 36.9 °F 60% 30.37 in 10.0 mi South 4.6 mph - N/A   Overcast
9:15 AM 50.5 °F 36.1 °F 58% 30.37 in 10.0 mi SSE 6.9 mph - N/A   Overcast
9:35 AM 50.9 °F 37.2 °F 59% 30.37 in 10.0 mi ESE 5.8 mph - N/A   Overcast
9:55 AM 51.3 °F 37.0 °F 58% 30.37 in 10.0 mi ESE 6.9 mph - N/A   Overcast
10:15 AM 52.0 °F 35.4 °F 53% 30.36 in 10.0 mi East 9.2 mph - N/A   Overcast
10:35 AM 52.3 °F 34.5 °F 51% 30.37 in 10.0 mi SE 6.9 mph - N/A   Overcast
10:55 AM 52.9 °F 35.4 °F 52% 30.37 in 10.0 mi SE 5.8 mph - N/A   Overcast
11:15 AM 53.1 °F 35.2 °F 51% 30.36 in 10.0 mi East 5.8 mph - N/A   Overcast
11:35 AM 53.6 °F 34.5 °F 48% 30.37 in 10.0 mi SE 4.6 mph - N/A   Overcast
11:55 AM 54.7 °F 32.7 °F 43% 30.36 in 10.0 mi ESE 5.8 mph - N/A   Overcast
12:15 PM 55.4 °F 33.8 °F 44% 30.35 in 10.0 mi SE 10.4 mph - N/A   Overcast
12:35 PM 55.9 °F 34.7 °F 45% 30.34 in 10.0 mi ESE 9.2 mph - N/A   Overcast
12:55 PM 56.5 °F 32.5 °F 40% 30.33 in 10.0 mi SE 8.1 mph - N/A   Overcast
1:15 PM 57.7 °F 31.6 °F 37% 30.32 in 10.0 mi ESE 12.7 mph 18.4 mph N/A   Overcast
1:35 PM 58.5 °F 32.5 °F 38% 30.32 in 10.0 mi SE 11.5 mph - N/A   Overcast
1:55 PM 59.0 °F 33.1 °F 38% 30.32 in 10.0 mi SE 9.2 mph - N/A   Overcast
2:15 PM 57.7 °F 34.5 °F 42% 30.33 in 10.0 mi SE 9.2 mph - N/A   Overcast
2:35 PM 58.1 °F 35.6 °F 43% 30.34 in 10.0 mi SSE 8.1 mph - N/A   Overcast
2:55 PM 57.6 °F 35.8 °F 44% 30.34 in 10.0 mi South 5.8 mph - N/A   Overcast
3:15 PM 57.7 °F 36.7 °F 45% 30.34 in 10.0 mi SE 6.9 mph - N/A   Overcast
3:35 PM 58.1 °F 36.5 °F 44% 30.33 in 10.0 mi SSE 8.1 mph - N/A   Overcast
3:55 PM 58.3 °F 36.7 °F 45% 30.33 in 10.0 mi SE 5.8 mph - N/A   Overcast
4:15 PM 58.1 °F 36.1 °F 44% 30.33 in 10.0 mi SSE 4.6 mph - N/A   Overcast
4:35 PM 58.3 °F 36.9 °F 45% 30.32 in 10.0 mi SE 4.6 mph - N/A   Mostly Cloudy
4:55 PM 59.0 °F 36.7 °F 43% 30.32 in 10.0 mi SSE 5.8 mph - N/A   Overcast
5:15 PM 59.2 °F 34.5 °F 40% 30.31 in 10.0 mi SE 6.9 mph - N/A   Scattered Clouds
5:35 PM 59.5 °F 34.7 °F 39% 30.30 in 10.0 mi ESE 6.9 mph - N/A   Clear
5:55 PM 60.6 °F 33.1 °F 36% 30.29 in 10.0 mi SE 6.9 mph - N/A   Clear
6:15 PM 60.1 °F 33.3 °F 36% 30.29 in 10.0 mi SE 8.1 mph - N/A   Clear
6:35 PM 59.9 °F 33.4 °F 37% 30.28 in 10.0 mi ESE 9.2 mph - N/A   Clear
6:55 PM 58.5 °F 32.7 °F 38% 30.29 in 10.0 mi SE 6.9 mph - N/A   Mostly Cloudy
7:15 PM 58.3 °F 33.1 °F 39% 30.29 in 10.0 mi SE 6.9 mph - N/A   Overcast
7:35 PM 58.1 °F 33.6 °F 40% 30.29 in 10.0 mi SE 8.1 mph - N/A   Overcast
7:55 PM 57.7 °F 34.7 °F 42% 30.29 in 10.0 mi SE 5.8 mph - N/A   Overcast
8:15 PM 56.8 °F 35.6 °F 45% 30.29 in 10.0 mi SE 5.8 mph - N/A   Overcast
8:35 PM 55.9 °F 36.1 °F 47% 30.29 in 10.0 mi SE 4.6 mph - N/A   Overcast
8:55 PM 55.6 °F 35.8 °F 47% 30.29 in 10.0 mi SE 4.6 mph - N/A   Overcast
9:15 PM 55.4 °F 36.3 °F 49% 30.30 in 10.0 mi SE 4.6 mph - N/A   Overcast
9:35 PM 54.9 °F 37.0 °F 51% 30.30 in 10.0 mi SE 4.6 mph - N/A   Overcast
9:55 PM 53.8 °F 37.6 °F 54% 30.30 in 10.0 mi East 3.5 mph - N/A   Mostly Cloudy
10:15 PM 52.9 °F 37.0 °F 55% 30.30 in 10.0 mi East 4.6 mph - N/A   Scattered Clouds
10:35 PM 52.0 °F 37.2 °F 57% 30.30 in 10.0 mi East 5.8 mph - N/A   Scattered Clouds
10:55 PM 52.2 °F 36.7 °F 56% 30.30 in 10.0 mi East 5.8 mph - N/A   Clear
11:15 PM 51.6 °F 36.1 °F 56% 30.30 in 10.0 mi SE 3.5 mph - N/A   Clear
11:35 PM 51.4 °F 36.5 °F 57% 30.30 in 10.0 mi ESE 3.5 mph - N/A   Clear
11:55 PM 47.3 °F 37.4 °F 68% 30.30 in 10.0 mi ESE 3.5 mph - N/A   Clear